{"data":{"norad_id":54741,"epoch":"2026-09-20T04:19:38.599104Z","epoch_age_seconds":42048,"freshness":"FRESH","line1":"1 54741U 22170A   26263.18030786 -.00000167  00000+0  00000+0 0  9998","line2":"2 54741   0.0103 207.1156 0002009 323.9370 159.8477  1.00271925 13841","mean_motion":1.00271925,"eccentricity":0.0002009,"inclination_deg":0.0103,"raan_deg":207.1156,"arg_perigee_deg":323.937,"mean_anomaly_deg":159.8477,"bstar":0,"rev_number":1384,"period_min":1436.094898946,"perigee_km":35778.084827388,"apogee_km":35795.02660092,"semimajor_km":42164.692714154,"source":"CELESTRAK","updated_at":"2026-09-20T09:00:35.525815Z"}}